Regional Weather Roundup
Issued by NWS

Home | Current Version | Previous Version | Text Only | Print | Product List | Glossary On
Versions: 1 2 3 4 5 6 7 8 9 10 11 12 13 14 15 16 17 18 19 20 21 22 23 24 25 26 27 28 29 30 31 32 33 34 35 36 37 38 39 40 41 42 43 44 45 46 47 48 49 50
000
ASUS42 KTBW 270415
RWRFL
FLORIDA REGIONAL WEATHER ROUNDUP
NATIONAL WEATHER SERVICE TAMPA BAY RUSKIN FL
1200 AM EDT FRI MAR 27 2015

NOTE: "FAIR" INDICATES FEW OR NO CLOUDS BELOW 12,000 FEET WITH NO
SIGNIFICANT WEATHER AND/OR OBSTRUCTIONS TO VISIBILITY.


FLZ001>010-012>015-112-114-115-270500-
PANHANDLE FLORIDA

CITY           SKY/WX    TMP DP  RH WIND       PRES   REMARKS
PENSACOLA      CLOUDY    67  64  90 W8        29.83F
PENSACOLA NAS  CLOUDY    67  64  90 W3        29.83F
MILTON NAS     CLOUDY    64  62  93 NW8       29.84
CRESTVIEW      CLOUDY    65  64  97 CALM      29.82F
DUKE FIELD     MOCLDY    65  63  93 S3        29.79F
VALPARAISO     CLOUDY    67  64  92 S7        29.79F
MARY ESTHER    MOCLDY    67  62  81 S6        29.78F
TRI COUNTY     FAIR      64  63  96 SE6       29.82F
PANAMA CITY    FAIR      66  64  93 CALM      29.82F
TYNDALL AFB    DRIZZLE   68  65  91 W7        29.82F
APALACHICOLA   CLOUDY    71  66  84 S10       29.82F

STATION/POSITION SKY/WX   TEMP    WIND        PRES    WAVE   SWELL
                          AIR SEA DIR/SP/G            HT/PER HT/PER
                          (F)     (DEG/KT/KT) (MB)    (FT/S) (FT/S)
30.1N   87.6W              69 68  230/ 12/ 14 1009.7F   3/ 5   2/ 7
29.2N   88.2W              72 73  230/ 14/ 16 1011.7R   4/ 4   2/ 7
28.8N   86.0W              72 75  170/ 21/ 25 1009.0F   3/ 7
PANAMA CITY BEAC           69 69  230/  6/ 10 1010.3F
CAPE SAN BLAS    NOT AVBL
TOWER C                    67     190/ 20/ 22 1010.1F
28.5N   84.5W              67 71  230/ 14/ 16 1013.3F   2/ 5

$$
FLZ011-016>038-118-127-128-134-139-239-270500-
NORTH FLORIDA

CITY           SKY/WX    TMP DP  RH WIND       PRES   REMARKS
MARIANNA       CLOUDY    64  63  96 CALM      29.83F
TALLAHASSEE    CLOUDY    65  62  90 SE5       29.85F
PERRY          DRIZZLE   66  65  96 S8        29.89S
CROSS CITY       N/A     67  65  93 SW7       29.89R
LAKE CITY      CLOUDY    63  63 100 W3        29.89S
GAINESVILLE    LGT RAIN  66  63  90 SW8       29.88S
MAYPORT NAS    CLOUDY    67  65  93 SW9       29.86F
JACKSONVILLE   CLOUDY    67  64  90 SW10      29.86S
JAX NAS        LGT RAIN  70  64  81 S8        29.88S
JAX CRAIG      CLOUDY    68  64  87 SW8       29.87S
JAX CECIL      CLOUDY    64  64 100 S8        29.88S
FERNANDINA BEA MOCLDY    72  68  88 S15       29.85S
ST AUGUSTINE   LGT RAIN  68  66  93 SW6       29.88F

STATION/POSITION SKY/WX   TEMP    WIND        PRES    WAVE   SWELL
                          AIR SEA DIR/SP/G            HT/PER HT/PER
                          (F)     (DEG/KT/KT) (MB)    (FT/S) (FT/S)
SHELL POINT                66     290/  5/  8   N/A
KEATON BEACH               68     220/ 16/ 18 1012.3R
CEDAR KEY                  68     250/ 16/ 21 1012.6F
FERNANDINA                 66 66  170/  5/  9 1010.5F
30.7N   81.3W                 64                N/A     3/ 8
MAYPORT                    67 67  190/  6/ 11 1011.5F
31.4N   80.9W              64 61  180/ 14/ 16 1009.7F   3/ 8   3/ 8
ST AUGUSTINE               67 64  230/  4/  6 1012.3F

$$
FLZ040-043>046-052-053-057-058-063-144-270500-
INTERIOR CENTRAL FLORIDA

CITY           SKY/WX    TMP DP  RH WIND       PRES   REMARKS
OCALA          CLOUDY    66  64  94 SW6       29.89F
THE VILLAGES     N/A     68  68 100 S3        29.80F
LEESBURG       CLOUDY    67  65  93 SW6       29.92F
SANFORD        CLOUDY    68  63  84 S6        29.91F
ORLANDO EXEC   CLOUDY    70  63  78 SW5       29.92F
ORLANDO INTL   CLOUDY    70  65  84 SW6       29.93F
WINTER HAVEN   CLOUDY    71  65  81 CALM      29.94F
BARTOW         FAIR      68  64  88 S3        29.94F
OKEECHOBEE       N/A     64  64 100 CALM      29.95F FOG

$$
FLZ041-047-054-059-064-141-147-270500-
EAST CENTRAL FLORIDA

CITY           SKY/WX    TMP DP  RH WIND       PRES   REMARKS
DAYTONA BEACH  CLOUDY    67  65  93 S6        29.91F
DELAND           N/A    N/A N/A N/A S3        29.91F
JFK SPACE CTR  DRIZZLE   70  64  83 W3        29.91F
CAPE CANAVERAL PTCLDY    73  67  81 W8        29.92S
PATRICK AFB    PTCLDY    73  70  89 W13       29.92F
MELBOURNE      PTCLDY    71  68  90 S10       29.93S
VERO BEACH     LGT RAIN  70  66  87 S5        29.93F
FT PIERCE      CLEAR     70  68  93 SW3       29.94F
STUART         CLEAR     72  68  88 SW5       29.96S

STATION/POSITION SKY/WX   TEMP    WIND        PRES    WAVE   SWELL
                          AIR SEA DIR/SP/G            HT/PER HT/PER
                          (F)     (DEG/KT/KT) (MB)    (FT/S) (FT/S)
28.5N   80.2W              73 73  190/ 14/ 17 1013.0R
28.9N   78.5W              76 76  200/ 19/ 23 1012.8F
TRIDENT PIER               73 74  190/  9/ 12 1013.8R
28.4N   80.5W                 72                N/A     4/ 5
27.5N   80.2W                 76                N/A     4/ 8

$$
FLZ050-056-061-142-242-148-248-149-249-151-251-155-255-
160-260-270500-
WEST CENTRAL FLORIDA

CITY           SKY/WX    TMP DP  RH WIND       PRES   REMARKS
CRYSTAL RIVER  CLOUDY    68  64  88 CALM      29.90S
INVERNESS      CLOUDY    66  61  82 CALM      29.91F
BROOKSVILLE    CLOUDY    67  66  97 S3        29.93S
ZEPHYRHILLS    FAIR      64  64 100 S3        29.93F
CLEARWATER     CLOUDY    70  65  84 CALM      29.92F
TAMPA INTL     CLOUDY    72  64  76 CALM      29.93F
TAMPA EXEC     CLOUDY    70  66  88 CALM      29.93F
PLANT CITY     CLOUDY    70  70 100 CALM      29.95S
MACDILL AFB    CLOUDY    70  69  95 CALM      29.92F
PETER O KNIGHT CLOUDY    73  68  83 CALM      29.93R
ST PETERSBURG  CLOUDY    72  65  78 S3        29.91F
SARASOTA       MOCLDY    69  66  90 SE6       29.92F
VENICE         FAIR      75  75 100 SW5       29.94F FOG

STATION/POSITION SKY/WX   TEMP    WIND        PRES    WAVE   SWELL
                          AIR SEA DIR/SP/G            HT/PER HT/PER
                          (F)     (DEG/KT/KT) (MB)    (FT/S) (FT/S)
CEDAR KEY                  68     250/ 16/ 21 1012.6F
28.5N   84.5W              67 71  230/ 14/ 16 1013.3F   2/ 5
27.3N   84.2W                 74                N/A     3/ 5
CLEARWATER BEACH           72 76  150/  4/  5 1012.8F
MIDDLE TAMPA BAY           71      10/  2/  4 1014.2F
VENICE                     76 77  260/  6/  7 1013.8R

$$
FLZ066-069-070-075>078-162-262-165-265-270500-
SOUTHWEST FLORIDA AND KEYS

CITY           SKY/WX    TMP DP  RH WIND       PRES   REMARKS
PUNTA GORDA    PTCLDY    74  73  97 SW3       29.96S
FT MYERS       CLEAR     75  73  93 S6        29.93F
SOUTHWEST INTL CLEAR     75  72  90 S6        29.94F
NAPLES         PTCLDY    76  74  93 S6        29.95S
MARCO ISLAND   CLOUDY    75  72  88 S7        29.95S
IMMOKALEE      CLEAR    N/A N/A N/A CALM      29.96S
MARATHON       CLOUDY    80  75  84 S10G17    29.98R
KEY WEST NAS   CLOUDY    79  75  87 S9        29.98R
KEY WEST INTL  PTCLDY    80  77  90 S7        29.98R

STATION/POSITION SKY/WX   TEMP    WIND        PRES    WAVE   SWELL
                          AIR SEA DIR/SP/G            HT/PER HT/PER
                          (F)     (DEG/KT/KT) (MB)    (FT/S) (FT/S)
VENICE                     76 77  260/  6/  7 1013.8R
NAPLES                     78 81  180/  2/  5 1014.1R
26.0N   85.6W              78 76  220/  8/ 10 1013.8R   5/ 6   5/ 6
DRY TORTUGAS               78     150/  3/  3 1014.8R
NW FL BAY                  82     170/  9/ 11 1015.1
SAND KEY                   79     170/  8/  9 1015.1R
SOMBRERO KEY               79     150/ 13/ 14 1015.8R
LONG KEY                   80 83  180/ 16/ 17 1016.0R
MOLASSES REEF              79 78  210/ 15/ 17 1015.3R

$$
FLZ067-068-071>074-168-172>174-270500-
SOUTHEAST FLORIDA

CITY           SKY/WX    TMP DP  RH WIND       PRES   REMARKS
W PALM BEACH   PTCLDY    76  70  82 S7        29.94F
FT LAUDER-EXEC MOCLDY    78  72  81 S6        29.96S
FT LAUDERDALE  MOCLDY    78  73  84 S6        29.96S
POMPANO BEACH  CLEAR     78  72  81 S6        29.96S
PEMBROKE PINES MOCLDY    78  72  81 S6        29.97F
OPA LOCKA      MOCLDY    78  72  81 S8        29.97S
MIAMI          MOCLDY    77  72  84 S6        29.97S
WEST KENDALL   PTCLDY    76  72  87 S5        29.98R
HOMESTEAD      PTCLDY    76  73  91 S3        29.97S

STATION/POSITION SKY/WX   TEMP    WIND        PRES    WAVE   SWELL
                          AIR SEA DIR/SP/G            HT/PER HT/PER
                          (F)     (DEG/KT/KT) (MB)    (FT/S) (FT/S)
PORT EVERGLADES            78     180/  8/ 11 1014.7R
VIRGINIA KEY               79 81  170/  9/ 12 1014.6R
LAKE WORTH                 78 78  180/ 14/ 16 1014.1R
SETTLEMENT POINT           79     200/ 16/ 19 1015.1R

$$



USA.gov is the U.S. government's official web portal to all federal, state and local government web resources and services.